Overview Statistics Trail Chart Weather Telemetry Raw packets
 

This is the latest recevied weather packets stored in our database for station/object 4S6DRJ-13. If no packets are shown the sender has not sent any weather packets the latest 10 day(s).

<< 313 314 315 316 317 318 319 >>
Time Temp. Humidity Pressure Rain* Wind** Luminosity Snow
1788003347 29.44° C 78% 1008.2 hPa 0 mm 0.89 m/s, 244° 122 W/m² -
1788003286 29.44° C 77% 1008.2 hPa 0 mm 1.79 m/s, 157° 125 W/m² -
1788003231 29.44° C 77% 1008.3 hPa 0 mm 1.79 m/s, 245° 126 W/m² -
1788003163 29.44° C 78% 1008 hPa 0 mm 1.79 m/s, 317° 126 W/m² -
1788003102 29.44° C 77% 1008.1 hPa 0 mm 2.24 m/s, 253° 132 W/m² -
1788003042 29.44° C 77% 1008.1 hPa 0 mm 0.89 m/s, 226° 134 W/m² -
1788002981 29.44° C 77% 1008.2 hPa 0 mm 1.79 m/s, 336° 135 W/m² -
1788002919 29.44° C 77% 1008 hPa 0 mm 1.34 m/s, 211° 138 W/m² -
1788002859 29.44° C 77% 1008 hPa 0 mm 1.34 m/s, 232° 134 W/m² -
1788002798 29.44° C 76% 1008.1 hPa 0 mm 1.79 m/s, 282° 142 W/m² -
1788002736 29.44° C 76% 1008 hPa 0 mm 1.79 m/s, 233° 149 W/m² -
1788002675 29.44° C 76% 1007.9 hPa 0 mm 1.79 m/s, 277° 154 W/m² -
1788002615 29.44° C 77% 1008 hPa 0 mm 0.45 m/s, 222° 158 W/m² -
1788002553 29.44° C 76% 1008.1 hPa 0 mm 1.34 m/s, 172° 161 W/m² -
1788002493 29.44° C 77% 1008 hPa 0 mm 0.89 m/s, 136° 161 W/m² -
1788002432 29.44° C 77% 1008 hPa 0 mm 0.89 m/s, 289° 163 W/m² -
1788002371 29.44° C 76% 1007.9 hPa 0 mm 2.68 m/s, 204° 173 W/m² -
1788002310 29.44° C 77% 1007.8 hPa 0 mm 1.79 m/s, 322° 178 W/m² -
1788002250 29.44° C 77% 1007.8 hPa 0 mm 1.79 m/s, 239° 178 W/m² -
1788002188 29.44° C 77% 1007.8 hPa 0 mm 0.89 m/s, 359° 179 W/m² -
1788002139 29.44° C 77% 1007.9 hPa 0 mm 1.79 m/s, 283° 185 W/m² -
1788002066 29.44° C 77% 1007.8 hPa 0 mm 0.45 m/s, 317° 186 W/m² -
1788002005 29.44° C 77% 1007.8 hPa 0 mm 1.79 m/s, 294° 187 W/m² -
1788001944 29.44° C 77% 1007.7 hPa 0 mm 1.79 m/s, 236° 196 W/m² -
1788001883 29.44° C 77% 1007.6 hPa 0 mm 2.24 m/s, 297° 202 W/m² -

* Rain latest hour (hover to see other rain measurements)
** Current wind speed in m/s (hover to see current wind gust speed)